Date,TemperatureHighF,TemperatureAvgF,TemperatureLowF,DewpointHighF,DewpointAvgF,DewpointLowF,HumidityHigh,HumidityAvg,HumidityLow,PressureMaxIn,PressureMinIn,WindSpeedMaxMPH,WindSpeedAvgMPH,GustSpeedMaxMPH,PrecipitationSumIn
2013-1-1,81.0,71.6,59.2,51.1,47.3,41.7,59,43,32,29.72,29.52,21,9,44,0.00
2013-1-2,81.0,69.9,58.6,60.1,54.4,48.7,92,60,38,29.57,29.23,24,5,47,0.26
2013-1-3,64.8,56.4,45.7,56.3,45.9,37.4,92,70,45,29.76,29.25,17,6,39,0.07
2013-1-4,68.5,58.0,45.7,51.3,43.7,37.8,79,60,35,29.96,29.76,12,5,25,0.00
2013-1-5,75.4,65.1,54.1,56.1,52.4,46.2,80,65,43,29.98,29.88,12,6,29,0.00
2013-1-6,70.9,64.9,58.6,60.8,55.7,51.6,90,73,58,29.98,29.81,23,8,45,0.00
2013-1-7,72.9,59.4,53.2,56.1,51.4,45.3,88,75,52,29.85,29.32,24,6,43,0.00
2013-1-8,70.0,59.9,53.1,53.2,48.3,41.7,88,67,40,29.60,29.33,15,6,35,0.00
2013-1-9,84.9,71.1,56.1,56.5,49.2,42.1,79,48,27,29.59,29.33,23,8,47,0.00
2013-1-10,80.1,75.2,65.1,64.0,48.8,39.7,79,41,26,29.71,29.22,24,12,53,0.04
2013-1-11,79.2,68.5,60.4,57.2,47.0,39.2,71,48,28,29.94,29.70,16,6,36,0.00
2013-1-12,88.5,73.2,58.6,57.7,50.2,39.2,88,50,21,29.93,29.66,12,3,28,0.00
2013-1-13,87.6,74.2,60.4,62.2,56.6,52.5,79,57,33,29.73,29.35,19,5,40,0.00
2013-1-14,65.1,61.1,57.4,54.3,51.8,46.4,82,72,54,29.62,29.52,15,3,25,0.00
2013-1-15,67.8,51.2,31.5,54.9,47.8,40.3,93,57,80,29.78,29.60,12,2,23,0.05
2013-1-16,79.9,31.4,-86.6,53.8,46.2,41.7,84,30,40,29.78,29.50,12,3,27,0.02
2013-1-17,59.4,54.0,46.4,55.9,50.4,43.7,92,87,67,29.62,29.38,15,5,29,0.31
2013-1-18,63.5,53.9,41.4,46.8,42.3,36.5,95,68,38,29.76,29.62,17,6,33,0.04
2013-1-19,86.4,66.4,55.2,57.9,50.7,44.8,77,60,34,29.73,29.37,19,8,36,0.00
2013-1-20,70.3,61.7,49.8,57.4,51.9,45.9,89,71,55,29.80,29.59,12,5,27,0.00
2013-1-21,67.3,60.0,51.4,55.4,52.0,49.3,92,76,57,30.15,29.80,12,5,28,0.00
2013-1-22,69.3,63.4,58.6,60.3,57.0,52.0,93,80,71,30.16,30.04,12,7,28,0.00
2013-1-23,87.6,72.5,54.5,63.0,53.6,47.5,98,59,27,30.06,29.92,19,6,40,0.01
2013-1-24,72.7,61.4,56.3,56.7,49.5,42.1,84,66,45,30.54,30.01,17,8,41,0.00
2013-1-25,65.7,59.6,52.3,53.2,50.2,47.1,87,72,60,30.56,30.45,16,7,35,0.00
2013-1-26,67.3,62.6,58.6,56.3,53.5,51.1,83,73,57,30.50,30.43,17,11,39,0.00
2013-1-27,73.2,65.3,60.1,59.7,57.3,54.3,89,76,54,30.56,30.47,11,5,25,0.00
2013-1-28,71.1,63.9,59.0,60.3,57.9,55.0,90,81,66,30.57,30.38,12,4,25,0.00
2013-1-29,73.8,65.2,61.7,61.3,58.8,57.0,88,80,64,30.40,30.24,9,4,21,0.00
2013-1-30,72.0,66.3,62.6,61.5,59.8,57.7,88,80,67,30.29,30.08,12,6,27,0.00
2013-1-31,88.5,71.9,56.1,60.1,52.1,37.0,93,58,19,30.12,30.06,13,4,31,0.00
2013-2-1,73.6,66.6,60.1,62.8,60.2,57.0,91,80,62,30.10,29.85,11,4,27,0.00
2013-2-2,77.0,66.0,60.1,64.8,60.6,57.9,95,84,63,29.88,29.72,13,6,27,0.00
2013-2-3,78.8,67.2,60.8,60.6,57.5,52.9,91,73,46,29.94,29.76,12,6,27,0.00
2013-2-4,66.7,62.2,52.5,63.7,58.9,47.1,93,89,80,29.81,29.45,23,8,49,0.49
2013-2-5,59.4,54.5,48.6,48.7,44.4,39.2,90,70,50,30.14,29.77,23,12,41,0.46
2013-2-6,63.3,57.2,53.2,53.1,48.6,40.3,89,74,56,30.33,30.14,13,4,25,0.01
2013-2-7,65.7,59.2,48.6,53.6,50.8,45.7,91,74,60,30.34,30.28,12,4,29,0.00
2013-2-8,66.2,61.9,58.3,58.1,55.8,53.1,87,81,73,30.34,30.14,16,8,35,0.00
2013-2-9,80.1,64.4,57.0,62.4,58.0,51.3,93,81,41,30.15,30.05,8,2,17,0.00
2013-2-10,73.8,63.5,56.7,62.1,58.3,54.9,94,84,59,30.10,29.87,13,6,32,0.00
2013-2-11,81.3,66.2,60.3,64.6,57.1,49.8,93,74,50,29.97,29.75,24,8,44,0.00
2013-2-12,66.6,61.0,56.8,57.0,54.6,52.9,90,80,69,29.97,29.90,9,4,24,0.00
2013-2-13,57.2,56.8,56.7,47.3,45.8,45.1,70,66,65,29.97,29.96,4,3,15,0.00
2013-2-14,75.6,62.2,46.0,53.6,47.0,37.4,91,62,27,29.96,29.82,12,3,24,0.00
2013-2-15,67.8,62.0,54.5,55.9,54.2,49.5,92,76,61,30.04,29.89,9,5,20,0.00
2013-2-16,77.7,65.7,54.0,59.5,56.1,50.9,92,73,40,30.00,29.88,6,2,16,0.00
2013-2-17,66.0,60.5,55.8,54.5,52.6,49.1,85,75,64,30.29,30.00,10,5,17,0.00
2013-2-18,69.3,60.6,49.6,56.8,53.1,46.4,90,77,61,30.33,30.26,7,3,17,0.00
2013-2-19,70.9,63.7,53.8,59.7,56.7,51.8,93,79,61,30.33,30.16,11,5,28,0.01
2013-2-20,69.6,64.4,57.6,59.0,56.0,52.9,87,74,65,30.18,30.09,11,6,19,0.00
2013-2-21,73.6,59.6,51.4,58.8,53.0,49.5,94,80,52,30.30,30.02,15,5,29,0.00
2013-2-22,64.0,57.3,51.3,52.0,49.6,46.8,89,76,60,30.33,30.25,7,3,15,0.00
2013-2-23,66.7,56.4,45.3,53.2,48.4,42.8,92,76,56,30.43,30.31,8,3,16,0.00
2013-2-24,71.4,59.3,47.3,55.9,51.2,44.8,92,76,48,30.52,30.42,5,1,13,0.00
2013-2-25,66.4,61.2,58.5,56.7,54.9,52.9,85,80,70,30.52,30.39,11,4,24,0.00
2013-2-26,70.5,64.3,60.8,59.9,57.9,56.1,88,80,66,30.40,30.26,8,5,20,0.00
2013-2-27,71.8,64.0,58.5,59.7,58.0,55.8,92,82,65,30.31,30.12,7,2,18,0.00
2013-2-28,70.2,64.5,62.6,61.7,59.5,57.7,89,84,69,30.12,29.81,13,6,26,0.00
2013-3-1,67.8,62.6,56.3,60.8,57.5,53.8,94,84,72,29.99,29.82,14,6,25,0.01
2013-3-2,68.7,62.8,59.4,57.7,55.6,53.8,84,78,65,29.99,29.76,7,1,15,0.00
2013-3-3,64.2,60.1,56.8,57.6,51.8,46.9,88,74,58,29.91,29.72,12,5,24,0.00
2013-3-4,68.9,59.1,54.5,55.0,50.9,46.4,90,75,57,29.99,29.57,15,5,29,0.00
2013-3-5,68.7,59.3,50.4,53.6,50.5,47.1,90,74,55,30.05,29.90,8,2,17,0.00
2013-3-6,85.5,62.8,53.1,57.4,51.2,42.4,89,70,24,30.15,29.79,15,4,31,0.00
2013-3-7,64.2,57.9,52.3,56.8,52.7,47.8,94,84,67,30.18,30.05,11,4,29,0.06
2013-3-8,81.3,65.2,53.1,60.6,55.4,49.8,95,74,34,30.26,30.07,8,3,19,0.00
2013-3-9,64.2,61.2,59.0,57.0,55.6,53.8,87,82,72,30.31,30.16,8,4,20,0.00
2013-3-10,67.5,61.9,58.8,58.8,57.4,55.4,90,85,71,30.27,30.14,7,3,15,0.00
2013-3-11,66.7,60.7,55.9,60.3,54.2,49.1,93,80,57,30.32,30.09,12,4,20,0.00
2013-3-12,61.7,58.6,56.5,53.2,51.7,49.3,85,78,73,30.32,30.11,7,3,17,0.00
2013-3-13,69.6,61.3,57.0,56.1,53.5,52.0,88,76,61,30.11,29.99,5,2,15,0.00
2013-3-14,71.4,62.7,53.1,61.2,57.4,50.7,94,83,68,30.02,29.82,8,3,20,0.00
2013-3-15,75.6,64.7,56.5,61.2,58.3,54.7,94,81,57,30.08,29.86,8,2,15,0.01
2013-3-16,66.0,61.8,59.9,58.3,56.4,54.7,89,82,72,30.09,29.84,5,2,13,0.00
2013-3-17,72.0,62.4,58.5,62.1,58.7,56.5,93,88,62,29.84,29.40,13,3,24,0.13
2013-3-18,58.6,58.3,57.9,56.7,56.5,56.3,94,94,93,29.46,29.42,2,1,5,0.13
2013-4-4,62.4,55.6,49.5,48.0,45.0,37.0,90,69,40,30.16,30.05,5,2,13,0.01
2013-4-5,59.7,51.1,45.7,49.1,44.2,41.5,92,78,57,30.32,30.11,10,2,18,0.00
2013-4-6,55.9,49.1,40.8,48.0,43.6,39.0,94,82,62,30.40,30.32,8,2,17,0.00
2013-4-7,57.4,49.2,40.5,46.9,42.6,37.9,92,79,53,30.40,30.25,3,0,10,0.03
2013-4-8,64.2,53.8,42.1,48.9,45.3,40.5,95,75,50,30.24,30.06,7,1,14,0.01
2013-4-9,55.2,51.7,46.9,50.4,45.2,41.0,92,79,64,30.37,30.12,12,3,25,0.09
2013-4-10,57.7,51.4,36.7,49.6,43.3,34.7,93,75,59,30.37,30.15,9,3,18,0.00
2013-4-11,74.8,57.9,39.7,52.2,45.4,37.8,93,67,35,30.13,29.88,10,2,22,0.00
2013-4-12,68.0,59.4,50.7,51.6,48.6,44.6,85,68,46,30.33,29.91,11,3,24,0.00
2013-4-13,62.8,54.8,46.4,56.3,50.3,42.3,92,85,77,30.33,30.19,8,2,19,0.00
2013-4-14,63.9,54.7,46.8,56.1,50.7,45.1,95,87,70,30.20,29.97,8,2,18,0.01
2013-4-15,73.0,58.0,46.6,56.3,50.1,44.8,94,77,48,29.98,29.86,5,1,11,0.00
2013-4-16,63.0,55.5,47.7,56.7,51.9,46.0,95,88,72,29.91,29.83,9,2,17,0.18
2013-4-17,56.5,54.5,53.2,54.3,52.7,51.4,95,94,91,29.86,29.64,5,2,12,0.25
2013-4-18,57.0,54.6,49.1,52.9,50.4,46.4,94,86,77,29.95,29.73,8,2,18,0.02
2013-4-19,57.6,52.4,47.8,49.6,48.1,45.7,93,86,73,30.09,29.94,7,1,15,0.00
2013-4-20,53.8,51.3,50.0,50.2,49.0,47.7,95,92,86,30.11,30.05,7,3,23,0.87
2013-4-21,58.5,54.2,52.2,56.8,52.3,49.8,95,93,84,30.04,29.72,11,4,26,0.46
2013-4-22,60.1,53.2,45.9,55.6,51.0,44.6,96,92,82,29.71,29.57,0,0,1,0.05
2013-4-23,63.0,55.3,48.6,56.3,52.4,46.9,96,90,77,29.63,29.55,0,0,0,0.00
2013-4-24,70.2,57.4,44.2,55.0,50.7,43.2,96,80,46,29.58,29.52,0,0,0,0.02
2013-4-25,69.4,57.0,50.5,55.6,51.2,42.6,94,83,38,29.64,29.53,4,1,10,0.01
2013-4-26,60.8,54.6,46.2,53.4,48.8,44.6,95,82,58,29.74,29.47,8,1,17,0.01
2013-4-27,66.7,57.8,48.0,52.7,47.2,39.7,91,70,44,29.77,29.47,11,2,20,0.00
2013-4-28,76.8,61.6,46.9,54.3,47.9,44.6,93,65,33,29.87,29.73,10,1,22,0.00
2013-4-29,72.7,63.7,52.9,59.4,53.2,45.1,93,71,41,29.95,29.72,12,1,23,0.00
2013-4-30,55.8,51.1,44.2,53.2,48.0,42.1,96,89,73,30.28,29.95,14,2,26,0.25
2013-5-1,58.1,48.0,34.9,48.9,43.1,33.4,95,84,63,30.27,30.07,8,2,19,0.01
2013-5-2,57.6,51.4,43.9,50.0,47.0,41.5,93,85,70,30.05,29.80,6,1,14,0.08
2013-5-3,57.0,50.6,46.6,49.8,47.0,44.8,94,88,73,30.17,30.00,4,1,15,0.05
2013-5-4,63.0,57.8,52.9,56.1,53.0,49.6,92,84,72,30.00,29.45,9,4,19,0.00
2013-5-5,64.9,57.5,54.1,56.3,53.0,48.9,94,85,70,29.43,29.24,10,3,23,0.02
2013-5-6,54.3,48.7,45.1,52.7,46.7,43.0,98,93,87,29.99,29.37,16,9,33,1.35
2013-5-7,58.3,47.5,39.4,44.2,42.1,37.2,94,83,56,30.29,30.00,3,0,9,0.02
2013-5-8,58.5,44.9,33.4,48.2,40.5,31.8,94,85,63,30.34,30.27,4,1,14,0.01
2013-5-9,59.2,47.8,37.8,53.1,42.9,36.1,96,85,45,30.25,29.61,4,1,14,0.01
2013-5-10,55.8,48.5,43.7,48.0,41.7,36.0,92,78,57,30.28,29.68,17,8,32,0.09
2013-5-11,55.6,48.7,40.3,44.4,39.5,33.4,92,71,61,30.44,30.28,9,2,17,0.00
2013-5-12,72.7,54.7,41.0,54.9,46.9,38.5,92,77,49,30.46,30.33,6,1,14,0.00
2013-5-13,54.3,52.3,49.8,51.3,49.7,47.8,94,91,86,30.40,30.21,5,1,16,0.00
2013-5-14,60.4,52.7,44.2,53.8,49.6,43.0,95,89,78,30.19,29.95,3,1,12,0.00
2013-5-15,61.3,50.4,40.6,54.9,47.3,39.0,96,89,77,30.11,30.00,5,1,13,0.02
2013-5-16,57.6,52.9,48.6,53.1,50.3,46.9,95,91,84,30.09,29.92,7,2,17,0.00
2013-5-17,62.4,54.8,46.4,54.1,50.4,45.0,96,86,67,29.91,29.73,5,1,17,0.18
2013-5-18,55.9,53.4,52.2,53.2,51.4,50.5,95,93,89,29.72,29.53,9,4,17,0.04
2013-5-19,54.0,52.6,51.6,52.7,51.3,50.4,96,95,95,29.71,29.52,3,0,9,0.63
2013-5-20,56.7,51.1,44.1,53.1,49.2,43.0,96,93,85,29.80,29.68,2,0,11,0.01
2013-5-21,55.2,53.8,51.1,53.6,52.2,49.6,96,94,92,29.83,29.70,8,2,20,0.39
2013-5-22,57.9,53.4,49.6,53.4,51.2,48.0,96,92,81,29.68,29.43,3,0,12,0.05
2013-5-23,54.0,50.1,45.0,50.7,45.2,41.2,94,84,65,29.91,29.44,14,7,27,0.17
2013-5-24,54.1,46.4,41.5,42.8,40.8,38.5,92,81,57,30.11,29.92,3,0,10,0.01
2013-5-25,64.8,49.0,37.8,48.7,42.0,36.0,94,79,42,29.99,29.58,3,0,10,0.01
2013-5-26,67.8,56.4,46.2,46.2,37.8,28.6,76,51,26,29.57,29.18,13,4,33,0.00
2013-5-27,52.2,46.6,40.3,40.6,37.4,30.9,89,71,49,29.53,29.29,16,3,30,0.00
2013-5-28,45.7,40.4,35.6,36.0,31.2,26.2,90,70,49,30.03,29.54,17,8,34,0.35
2013-5-29,56.1,45.1,36.7,38.8,32.9,27.1,88,64,43,30.32,30.05,9,2,20,0.00
2013-5-30,57.4,42.9,30.9,42.4,35.2,28.4,90,76,46,30.41,30.32,2,0,8,0.00
2013-5-31,61.9,45.5,32.5,44.4,38.7,30.7,94,79,47,30.33,30.19,1,0,4,0.01
2013-6-1,63.9,51.4,39.0,50.7,44.7,36.7,92,79,59,30.18,29.81,2,0,10,0.00
2013-6-2,69.1,63.3,53.1,48.9,44.9,41.4,79,52,39,29.80,29.50,11,4,26,0.00
2013-6-3,63.5,50.2,45.1,49.1,45.7,42.6,95,86,47,29.67,29.51,12,3,24,0.28
2013-6-4,48.7,45.9,41.5,47.1,43.8,38.8,96,92,81,29.93,29.45,15,4,28,0.37
2013-6-5,50.2,42.2,33.6,39.6,36.7,31.8,94,81,63,30.22,29.93,4,0,9,0.02
2013-6-6,54.3,46.9,39.9,46.8,42.8,37.9,93,86,74,30.38,30.24,5,0,13,0.00
2013-6-7,54.0,46.5,38.8,46.9,42.2,36.3,94,85,71,30.37,30.19,7,2,18,0.01
2013-6-8,64.6,53.2,40.6,51.6,44.6,38.8,100,75,45,30.19,29.91,4,1,14,0.01
2013-6-9,54.9,51.7,45.7,51.4,48.4,43.7,94,89,79,30.24,29.96,7,2,16,0.01
2013-6-10,54.0,50.1,46.2,51.3,47.9,44.6,95,92,84,30.27,30.17,5,1,16,0.00
2013-6-11,52.0,47.8,44.1,50.2,46.3,42.6,96,95,92,30.16,30.10,6,2,17,0.00
2013-6-12,57.6,46.0,36.9,48.4,43.1,35.8,96,90,67,30.10,30.01,2,0,10,0.01
2013-6-13,51.6,47.8,43.5,46.8,44.7,41.5,93,89,80,30.10,29.94,7,1,14,0.00
2013-6-14,52.0,48.2,45.3,48.2,45.5,43.7,95,90,83,30.20,30.10,7,1,16,0.06
2013-6-15,49.6,47.0,43.5,46.4,44.3,41.4,94,90,84,30.15,30.00,3,0,14,0.11
2013-6-16,46.6,45.7,45.0,45.1,44.4,43.5,95,95,94,30.01,29.68,4,1,11,1.17
2013-6-17,52.5,50.4,46.0,51.3,48.9,44.6,96,95,93,29.67,29.45,10,4,25,1.72
2013-6-18,54.0,48.1,40.5,48.0,45.3,39.0,95,90,79,29.54,29.39,7,2,16,0.01
2013-6-19,47.8,46.2,43.3,45.7,44.4,41.7,95,94,91,29.39,29.14,5,1,11,0.30
2013-6-20,45.5,41.4,36.9,42.6,38.4,34.7,94,89,69,29.53,29.12,38,10,38,0.69
2013-6-21,42.7,38.6,34.7,39.2,35.9,32.6,93,90,79,29.88,29.55,32,9,37,0.53
2013-6-22,39.3,38.3,37.0,37.5,36.4,35.2,93,93,92,30.10,29.89,17,8,25,1.13
2013-6-23,50.5,38.2,30.0,44.2,34.9,28.5,94,88,73,30.10,29.99,10,0,10,0.04
2013-6-24,57.5,39.0,30.5,47.4,34.9,27.9,93,86,61,30.14,30.02,4,0,4,0.04
2013-6-25,54.9,39.6,29.2,42.6,33.6,27.3,93,81,53,30.18,30.13,6,0,6,0.01
2013-6-26,51.9,40.9,30.8,45.9,36.4,28.1,91,84,71,30.27,30.15,7,0,7,0.00
2013-6-27,50.4,41.0,31.1,43.6,37.1,28.9,93,86,70,30.28,30.19,15,2,15,0.09
2013-6-28,51.2,43.9,34.5,42.3,39.4,32.1,92,85,70,30.28,30.23,13,3,13,0.06
2013-6-29,48.6,37.8,28.8,41.0,34.2,27.0,93,87,73,30.25,30.12,9,1,9,0.00
2013-6-30,57.6,40.0,30.1,43.1,35.1,28.5,100,84,56,30.12,30.04,5,0,5,0.02
2013-7-1,62.4,45.0,30.3,43.5,36.9,28.3,93,76,47,30.08,29.95,12,1,12,0.00
2013-7-2,68.2,62.4,56.1,43.0,41.0,38.3,53,46,38,29.98,29.88,24,6,24,0.01
2013-7-3,68.6,57.4,47.9,47.1,42.1,36.9,86,59,38,29.98,29.70,22,6,22,0.01
2013-7-4,53.1,49.1,44.6,47.2,45.2,42.3,92,86,78,30.13,29.91,15,5,15,0.00
2013-7-5,67.3,58.3,47.2,46.1,39.5,33.9,92,52,36,29.90,29.58,29,7,29,0.01
2013-7-6,62.7,57.0,50.6,48.2,41.1,34.8,84,57,38,29.64,29.36,50,12,50,0.28
2013-7-7,57.1,52.5,44.1,44.5,38.6,32.3,78,60,45,29.76,29.52,30,9,30,0.06
2013-7-8,54.2,43.6,34.6,41.1,34.5,29.6,89,71,53,30.03,29.78,12,2,12,0.00
2013-7-9,51.2,42.8,34.0,40.9,36.8,31.4,91,80,60,30.17,29.91,16,3,16,0.20
2013-7-10,47.8,41.6,37.0,42.3,38.3,34.6,92,88,80,30.62,30.19,12,4,12,0.23
2013-7-11,51.2,40.3,32.2,39.3,34.4,28.9,93,80,58,30.63,30.55,12,1,12,0.01
2013-7-12,50.4,39.2,30.4,39.2,32.8,27.5,90,79,55,30.57,30.30,6,0,6,0.00
2013-7-13,47.8,43.9,40.5,46.0,42.0,38.9,100,93,89,30.28,29.83,12,5,12,0.18
2013-7-14,47.1,42.5,37.8,44.9,38.8,34.3,94,87,74,30.08,29.76,30,11,30,0.43
2013-7-15,48.3,43.9,39.1,43.4,40.2,35.3,92,87,76,30.31,30.05,20,8,20,0.36
2013-7-16,49.7,41.7,33.2,42.6,38.1,31.2,93,87,73,30.37,30.28,12,2,12,0.00
2013-7-17,63.4,46.4,34.4,47.1,39.3,32.8,94,79,42,30.33,30.22,5,1,5,0.01
2013-7-18,60.0,50.6,39.3,49.8,44.5,36.6,92,80,64,30.29,30.18,7,1,7,0.02
2013-7-19,52.4,48.4,41.1,48.8,45.5,39.1,94,90,85,30.35,30.26,9,1,9,0.00
2013-7-20,51.1,49.3,47.2,48.2,46.9,45.3,94,91,87,30.33,30.16,15,5,15,0.01
2013-7-21,64.8,48.4,36.7,51.8,42.6,35.4,95,83,50,30.16,30.08,5,1,5,0.00
2013-7-22,61.2,50.8,40.7,49.3,44.2,38.5,92,79,60,30.14,29.96,10,2,10,0.01
2013-7-23,57.2,53.0,47.3,49.6,47.6,44.9,93,82,68,29.99,29.79,11,3,11,0.07
2013-7-24,61.6,47.5,36.3,50.1,41.9,34.8,99,82,53,29.78,29.56,9,1,9,0.01
2013-7-25,57.1,47.6,34.8,46.4,39.8,32.1,90,75,62,29.75,29.55,9,2,9,0.00
2013-7-26,63.1,47.3,33.0,42.9,35.3,29.6,88,66,35,30.10,29.76,9,1,9,0.00
2013-7-27,63.4,47.8,38.0,43.9,39.0,35.6,91,74,40,30.28,30.11,6,0,6,0.00
2013-7-28,67.5,48.0,36.3,45.5,39.5,33.6,91,75,41,30.40,30.28,5,0,5,0.00
2013-7-29,58.6,46.4,35.0,44.0,38.3,32.4,91,75,48,30.50,30.40,12,2,12,0.00
2013-7-30,54.7,49.4,40.4,48.0,45.3,38.3,93,86,77,30.43,30.31,14,5,15,0.00
2013-7-31,51.9,45.0,39.2,45.2,41.6,36.3,94,88,67,30.36,30.24,9,2,9,0.01
2013-8-1,52.6,44.5,35.7,45.6,40.1,31.8,92,84,73,30.42,30.35,9,2,9,0.00
2013-8-2,51.4,47.3,44.3,46.9,44.4,42.0,93,89,82,30.41,30.16,7,2,7,0.00
2013-8-3,54.0,50.6,46.8,49.9,47.9,44.8,98,90,86,30.15,29.90,24,10,24,0.14
2013-8-4,54.5,51.8,49.6,49.5,48.4,46.8,92,88,81,29.90,29.84,22,9,22,0.00
2013-8-5,55.9,51.4,49.6,51.4,48.7,46.8,93,90,84,29.91,29.73,16,6,16,0.00
2013-8-6,64.5,54.4,47.7,46.4,43.4,40.6,89,68,45,29.89,29.72,13,3,13,0.01
2013-8-7,65.7,53.0,41.2,46.9,43.3,37.9,89,71,48,29.89,29.65,22,4,22,0.00
2013-8-8,60.4,50.2,42.2,45.5,41.6,37.4,85,73,52,29.97,29.77,12,2,12,0.00
2013-8-9,53.4,47.0,41.6,47.3,42.8,38.8,92,85,78,30.09,29.98,14,3,14,0.00
2013-8-10,50.2,46.4,39.7,47.9,44.1,37.1,93,91,90,30.01,29.61,16,5,16,0.00
2013-8-11,53.4,51.1,48.3,51.1,48.9,46.1,93,92,90,29.60,29.33,20,8,20,0.07
2013-8-12,53.7,49.7,45.6,48.5,46.1,42.1,92,88,78,29.64,29.40,15,3,15,0.06
2013-8-13,52.9,47.6,38.6,47.4,43.9,36.5,92,87,79,29.63,29.11,23,6,23,0.01
2013-8-14,61.7,51.1,41.1,45.3,37.3,27.4,92,63,29,29.61,29.13,14,3,14,0.02
2013-8-15,68.2,54.6,41.4,45.3,41.0,36.3,83,62,38,29.77,29.62,18,2,18,0.00
2013-8-16,61.7,52.8,46.2,48.7,45.1,40.4,86,76,54,29.90,29.74,14,3,14,0.00
2013-8-17,53.0,51.1,49.1,50.1,47.9,46.0,91,89,86,29.99,29.90,20,8,20,0.54
2013-8-18,51.7,51.3,50.2,49.0,48.4,47.3,91,90,89,30.07,29.98,21,10,21,0.34
2013-8-19,55.4,51.5,50.3,50.0,47.5,46.3,90,86,78,30.12,30.04,25,7,25,0.01
2013-8-20,56.1,51.8,49.3,48.6,46.6,45.6,87,82,73,30.05,29.88,26,11,26,0.00
2013-8-21,57.1,52.1,47.6,49.7,47.1,44.1,88,83,71,29.89,29.71,28,11,28,1.20
2013-8-22,64.4,55.7,51.0,50.3,47.2,41.0,86,74,53,29.70,29.62,25,7,25,0.00
2013-8-23,65.0,53.1,45.3,47.7,41.6,37.1,90,67,37,29.82,29.68,15,4,15,0.00
2013-8-24,58.2,48.3,36.5,45.9,40.9,34.1,92,77,50,29.82,29.64,15,4,15,0.02
2013-8-25,57.2,50.0,42.9,47.9,43.5,38.8,88,79,61,29.74,29.62,10,2,10,0.00
2013-8-26,63.7,52.6,44.3,50.1,45.5,40.4,87,77,60,29.89,29.62,18,4,18,0.00
2013-8-27,64.3,53.0,42.0,47.4,40.8,32.4,89,66,34,29.88,29.80,10,3,10,0.00
2013-8-28,60.1,48.5,37.4,44.4,39.8,34.3,92,73,46,29.86,29.54,33,3,33,0.15
2013-8-29,55.9,46.7,38.4,41.6,35.4,32.0,88,67,42,30.18,29.84,18,4,18,0.20
2013-8-30,52.4,47.9,40.7,43.4,40.2,36.2,88,75,62,30.44,30.20,15,4,15,0.01
2013-8-31,53.2,45.2,34.7,42.8,38.7,31.8,89,79,63,30.49,30.41,21,7,21,0.01
2013-9-1,54.5,47.8,38.2,44.4,41.3,34.6,88,78,67,30.58,30.49,21,7,21,0.00
2013-9-2,54.2,45.4,32.4,45.7,40.2,29.4,90,82,71,30.57,30.38,18,6,18,0.01
2013-9-3,62.2,51.1,41.5,47.3,43.4,38.1,89,76,52,30.37,30.05,16,5,16,0.00
2013-9-4,50.3,46.4,42.5,43.6,40.5,34.1,88,80,66,30.22,29.75,33,11,33,0.54
2013-9-5,53.9,45.3,38.6,42.6,37.8,34.8,86,76,51,30.30,30.19,21,7,21,0.13
2013-9-6,62.6,50.2,36.6,47.0,40.9,32.9,92,71,49,30.17,29.89,12,2,12,0.00
2013-9-7,67.5,53.9,38.5,49.2,40.3,35.0,88,63,38,29.91,29.63,22,4,22,0.00
2013-9-8,57.4,52.5,45.4,46.2,41.7,36.5,86,68,50,29.78,29.60,21,6,21,0.00
2013-9-9,56.7,50.3,43.6,43.8,39.2,34.3,82,66,52,29.75,29.56,21,6,21,0.00
2013-9-10,69.7,55.7,40.9,46.5,38.6,33.9,79,55,37,29.76,29.14,52,8,52,0.41
2013-9-11,71.5,62.4,55.0,56.3,50.6,40.1,84,66,46,29.43,29.24,28,7,30,0.17
2013-9-12,66.0,55.1,46.0,47.5,40.3,31.9,83,59,35,29.73,29.31,29,7,29,0.17
2013-9-13,61.2,50.7,39.9,38.9,33.4,26.3,78,54,27,29.70,29.57,15,4,15,0.00
2013-9-14,58.8,48.9,39.3,43.5,39.2,31.1,87,70,42,29.67,29.50,12,3,13,0.00
2013-9-15,49.6,45.7,41.3,39.0,32.3,28.4,78,60,47,30.02,29.73,27,8,27,0.02
2013-9-16,59.4,47.3,33.0,42.6,36.7,29.0,86,68,44,30.03,29.84,14,3,14,0.00
2013-9-17,52.4,46.6,39.8,39.2,37.1,31.3,87,71,46,30.32,30.03,25,6,25,0.00
2013-9-18,56.6,47.3,36.4,45.0,39.1,32.8,87,74,56,30.30,30.14,17,5,18,0.00
2013-9-19,62.1,49.3,39.5,46.8,41.5,35.7,89,76,42,30.15,29.79,17,4,17,0.01
2013-9-20,58.4,51.9,45.8,50.8,46.4,42.1,87,82,71,29.76,29.65,14,4,14,0.00
2013-9-21,61.7,57.4,49.5,52.9,49.0,45.1,88,75,56,29.72,29.64,14,3,14,0.16
2013-9-22,53.2,50.6,47.0,49.4,47.3,43.9,90,88,86,29.73,29.60,13,5,13,0.21
2013-9-23,59.6,52.9,47.8,52.8,48.6,44.7,90,85,78,30.13,29.68,15,4,15,0.01
2013-9-24,55.0,51.5,48.7,48.2,46.2,42.8,88,82,71,30.25,30.14,17,7,17,0.01
2013-9-25,50.4,48.3,46.7,46.1,44.3,42.6,89,86,82,30.14,29.70,16,7,16,0.06
2013-9-26,63.6,52.8,46.8,53.5,46.9,43.4,92,81,58,29.78,29.53,24,9,24,0.00
2013-9-27,57.4,51.0,42.1,49.3,45.5,38.4,88,82,68,29.78,29.30,29,8,29,0.02
2013-9-28,62.6,53.1,46.2,50.5,46.0,41.1,87,77,57,29.52,29.20,23,7,23,0.11
2013-9-29,55.7,49.7,46.2,47.2,44.2,42.4,88,82,67,29.65,29.53,15,6,15,0.02
2013-9-30,59.0,51.4,47.9,48.8,45.4,43.5,90,80,65,29.92,29.65,15,5,15,0.00
2013-10-1,62.7,54.6,44.6,50.7,46.8,41.2,88,76,57,29.95,29.86,18,7,18,0.01
2013-10-2,71.6,60.8,53.7,49.8,46.3,38.9,84,61,33,29.97,29.74,18,6,19,0.00
2013-10-3,64.3,56.7,51.3,53.5,49.3,46.1,85,77,66,30.01,29.74,18,7,18,0.00
2013-10-4,67.2,58.6,50.8,56.2,50.6,46.4,85,75,59,29.97,29.76,16,4,16,0.00
2013-10-5,65.8,54.3,48.4,54.8,49.1,44.4,88,83,67,29.97,29.76,16,5,16,0.00
2013-10-6,79.0,62.5,49.6,55.9,49.3,42.1,92,65,36,29.76,29.48,15,5,15,0.00
2013-10-7,64.7,57.2,46.0,48.7,43.0,32.8,87,62,32,29.68,29.40,18,7,29,0.11
2013-10-8,46.3,42.6,38.3,42.6,38.9,34.8,87,86,85,29.68,29.61,10,3,10,1.05
2013-10-9,49.7,43.9,37.5,42.0,38.4,33.5,88,81,67,29.75,29.63,22,7,22,0.26
2013-10-10,58.6,46.8,32.3,45.2,37.9,29.1,88,73,49,29.74,29.24,18,4,18,0.01
2013-10-11,55.6,50.2,43.6,46.5,43.4,39.3,85,78,64,29.40,29.15,20,7,20,0.00
2013-10-12,62.2,50.2,45.1,46.7,43.0,40.8,85,77,49,29.61,29.18,24,4,24,0.22
2013-10-13,72.3,55.1,37.3,52.9,43.3,33.8,92,68,38,29.71,29.51,26,8,26,0.00
2013-10-14,71.3,62.0,47.9,57.8,48.6,40.1,82,63,37,29.51,28.91,34,10,35,0.20
2013-10-15,62.6,51.3,41.4,44.1,37.6,28.3,85,63,32,29.65,29.32,26,7,26,0.13
2013-10-16,56.9,48.0,35.2,45.9,39.9,31.6,90,75,56,29.80,29.65,22,6,22,0.01
2013-10-17,74.8,60.8,44.5,48.4,44.2,39.0,81,57,31,29.92,29.80,20,5,20,0.00
2013-10-18,77.3,65.6,53.2,53.5,45.5,37.8,77,49,38,30.16,29.67,31,12,31,0.00
2013-10-19,64.3,56.8,49.7,49.9,44.5,35.6,81,65,39,30.22,30.09,20,9,20,0.00
2013-10-20,75.4,60.2,45.9,52.8,43.2,37.5,84,57,26,30.18,29.99,18,5,18,0.00
2013-10-21,73.1,61.3,50.3,46.7,43.8,34.2,82,55,32,29.99,29.68,31,9,31,0.00
2013-10-22,67.7,57.2,49.7,50.0,46.8,44.4,85,70,44,29.96,29.61,25,8,25,0.02
2013-10-23,57.9,52.5,46.1,48.2,45.6,41.4,85,78,64,30.10,29.87,28,9,28,0.02
2013-10-24,80.8,67.1,51.9,56.2,49.1,37.8,84,57,28,29.86,29.32,32,14,32,0.02
2013-10-25,73.3,64.5,53.3,57.3,43.3,26.9,80,48,27,29.64,29.25,36,12,36,0.06
2013-10-26,67.5,58.8,48.9,47.2,41.9,35.6,69,54,39,29.67,29.49,40,14,40,0.00
2013-10-27,61.3,55.2,45.7,43.6,35.3,27.7,69,49,30,29.69,29.48,28,12,28,0.00
2013-10-28,56.4,49.9,45.2,41.1,37.2,33.4,77,62,46,30.03,29.69,21,8,21,0.00
2013-10-29,61.2,52.9,41.3,49.7,43.4,36.0,83,71,51,30.03,29.86,25,9,25,0.00
2013-10-30,67.7,55.0,44.7,50.9,46.1,37.8,86,73,47,29.91,29.70,23,6,23,0.06
2013-10-31,68.3,58.5,51.2,55.0,50.1,44.7,85,75,54,29.69,29.44,16,6,16,0.02
2013-11-1,57.5,50.5,44.5,45.0,42.9,40.3,85,75,61,29.83,29.63,16,6,16,0.35
2013-11-2,61.0,52.0,39.2,48.4,43.0,35.5,87,72,53,29.88,29.78,20,6,20,0.01
2013-11-3,60.4,54.9,49.3,50.7,46.8,43.0,83,75,63,30.04,29.88,28,10,28,0.00
2013-11-4,71.0,60.2,43.6,53.6,49.7,39.3,86,70,48,29.90,29.78,18,6,18,0.00
2013-11-5,76.1,62.7,50.5,54.7,47.8,42.9,82,62,31,30.10,29.83,17,6,17,0.00
2013-11-6,56.8,54.1,51.5,50.4,48.5,46.8,85,81,78,30.18,30.09,18,9,18,0.01
2013-11-7,65.8,56.7,48.7,53.2,49.5,44.1,85,77,58,30.13,29.92,20,7,20,0.00
2013-11-8,68.7,57.4,52.4,58.1,51.6,47.1,84,81,64,29.99,29.83,20,9,20,0.02
2013-11-9,60.7,55.0,51.4,52.2,48.9,46.1,83,80,73,30.04,29.90,22,8,22,0.02
2013-11-10,82.2,65.0,54.2,55.0,50.8,47.5,82,64,30,29.97,29.68,25,12,25,0.00
2013-11-11,58.5,55.2,52.8,50.0,45.1,42.6,80,69,60,30.45,29.97,20,8,20,0.00
2013-11-12,59.6,54.3,49.6,48.4,45.5,42.7,78,72,61,30.58,30.45,14,4,14,0.00
2013-11-13,59.2,52.3,42.7,47.2,43.8,38.2,84,73,62,30.58,30.37,21,7,21,0.00
2013-11-14,60.4,54.9,51.2,47.9,45.9,43.6,77,72,62,30.41,30.18,23,11,25,0.00
2013-11-15,61.2,57.0,54.1,52.6,50.1,47.8,82,78,72,30.19,29.85,27,12,27,0.00
2013-11-16,82.0,65.8,51.3,56.4,49.9,43.8,83,61,29,30.03,29.77,22,8,22,0.00
2013-11-17,62.6,57.9,53.3,53.4,50.5,47.6,81,76,68,30.10,30.03,22,9,22,0.00
2013-11-18,67.7,60.0,55.5,56.3,52.7,50.1,82,77,65,30.25,30.10,18,6,18,0.00
2013-11-19,63.7,58.9,56.5,55.1,52.4,50.7,81,79,73,30.29,30.18,27,13,27,0.01
2013-11-20,66.5,60.6,57.3,57.1,53.7,51.2,81,78,71,30.18,29.90,26,14,26,0.00
2013-11-21,79.3,61.1,52.7,58.3,52.1,47.0,81,73,42,30.08,29.83,23,6,24,0.06
2013-11-22,55.4,54.7,54.6,49.3,48.6,48.6,80,80,80,30.10,30.08,6,0,6,0.00
2013-11-23,54.7,54.7,54.7,48.6,48.6,48.6,80,80,80,30.10,30.10,0,0,1,0.00
2013-11-24,68.5,55.0,54.7,48.9,48.5,44.3,80,79,42,30.10,29.59,9,0,9,0.00
2013-11-25,67.3,57.3,49.0,53.8,48.0,42.1,79,72,43,29.78,29.58,18,5,18,0.39
2013-11-26,57.6,52.2,48.3,47.2,44.0,40.7,78,74,66,30.04,29.77,12,6,13,0.11
2013-11-27,58.0,53.0,49.1,50.5,45.3,41.2,77,75,72,30.11,29.99,20,8,20,0.06
2013-11-28,61.4,57.2,51.4,53.8,49.0,43.7,77,74,71,29.99,29.57,20,8,20,0.07
2013-11-29,73.6,60.4,44.8,56.1,47.9,36.7,76,65,43,29.57,29.22,22,6,22,0.00
2013-11-30,72.7,63.6,50.2,51.1,44.7,30.4,75,52,25,29.67,29.19,35,11,35,0.00
2013-12-1,69.2,56.6,45.2,47.1,42.1,35.2,79,60,31,30.17,29.65,25,8,25,0.00
2013-12-2,71.0,59.5,48.0,53.5,48.2,41.1,77,67,51,30.24,30.14,16,8,16,0.00
2013-12-3,68.4,61.4,55.5,57.0,52.5,47.7,76,73,66,30.24,30.01,18,10,20,0.00
2013-12-4,70.5,60.8,54.4,57.6,51.9,45.9,76,72,62,30.07,29.84,20,8,20,0.00
2013-12-5,72.2,61.8,55.9,61.2,53.0,46.7,76,73,69,29.85,29.68,18,8,18,0.00
2013-12-6,83.6,69.3,57.3,62.9,54.9,45.7,73,61,39,29.68,29.46,18,7,18,0.00
2013-12-7,77.8,71.8,66.2,53.3,46.6,41.9,55,41,30,29.47,29.39,25,10,25,0.00
2013-12-8,73.2,63.7,55.9,55.9,49.9,44.8,75,61,40,29.67,29.43,18,6,18,0.23
2013-12-9,70.0,60.1,53.0,53.4,49.1,43.4,75,68,50,29.91,29.67,17,6,17,0.12
2013-12-10,65.5,60.0,56.5,56.2,50.4,45.3,74,70,65,29.94,29.85,18,7,18,0.01
2013-12-11,71.2,63.1,57.9,57.7,51.8,46.7,73,67,55,29.89,29.77,17,7,17,0.00
2013-12-12,71.8,64.3,55.7,59.8,53.7,44.4,72,68,58,29.83,29.62,21,7,21,0.00
2013-12-13,74.8,63.7,56.2,60.5,53.6,46.9,74,70,55,30.00,29.72,17,8,17,0.00
2013-12-14,68.0,62.1,53.3,58.0,52.7,42.8,74,71,66,30.00,29.91,16,6,16,0.00
2013-12-15,73.7,62.8,54.4,61.6,52.3,42.5,74,69,61,30.02,29.88,15,6,15,0.00
2013-12-16,72.1,64.1,58.6,59.3,52.9,46.0,73,67,56,29.88,29.75,20,6,20,0.00
2013-12-17,60.1,56.5,51.1,50.4,45.6,38.6,73,67,59,30.01,29.81,20,6,20,0.19
2013-12-18,69.5,59.9,48.9,54.6,47.8,37.3,72,65,51,30.00,29.70,22,8,22,0.03
2013-12-19,61.4,55.2,50.3,47.2,43.4,38.1,73,65,55,30.13,29.85,21,9,21,0.28
2013-12-20,66.8,58.8,44.1,55.8,48.3,33.5,73,68,62,30.12,29.73,21,9,21,0.00
2013-12-21,76.6,61.7,50.1,55.5,46.6,34.8,73,61,25,29.83,29.55,23,9,23,0.02
2013-12-22,63.8,54.8,47.3,46.5,42.0,35.4,73,62,46,30.06,29.83,16,6,16,0.03
2013-12-23,69.4,59.9,48.7,52.0,46.9,39.7,73,63,43,30.05,29.87,15,7,15,0.00
2013-12-24,78.2,66.1,57.6,58.1,51.6,43.8,71,61,42,29.89,29.33,25,11,25,0.02
2013-12-25,75.0,64.2,55.5,55.9,47.2,38.4,70,55,42,29.73,29.38,22,7,22,0.55
2013-12-26,64.7,57.6,54.0,53.9,40.2,35.5,68,52,45,30.00,29.73,19,8,19,0.10
2013-12-27,60.9,57.7,55.1,50.1,37.2,29.2,68,47,35,30.05,29.99,16,6,16,0.20
2013-12-28,63.2,59.2,55.8,33.2,22.8,9.6,36,25,13,30.01,29.88,19,8,19,0.38
2013-12-29,63.7,62.1,60.9,63.7,35.8,-14.1,100,60,4,29.89,29.63,20,9,20,0.13
2013-12-30,70.5,63.6,56.5,70.5,58.7,-8.4,100,87,28,29.63,29.32,17,7,17,0.03
2013-12-31,72.2,62.9,53.3,56.7,42.9,36.8,100,50,28,29.75,29.46,18,5,20,0.00
2014-1-1,73.5,61.8,51.6,50.8,44.4,40.6,66,54,34,29.75,29.56,24,8,24,0.00
2014-1-2,73.0,65.3,57.4,51.2,46.3,39.7,61,51,40,29.67,29.41,25,9,25,0.00